Location: Azul
(36.7830°S, 59.8500°W)
Time: 18:15:29
(UTC-03:00)

BEESAT - Pass Details

Date: 26 October 2021
Orbit: 700 x 707 km, 98.6° (Epoch: 06 December)

Event Time Altitude Azimuth Distance (km) Brightness Sun altitude
Rises 20:18:42 0° 357° (N) 3,088 ? -10.6°
Reaches altitude 10° 20:21:02 10° 350° (N) 2,179 ? -11.0°
Maximum altitude 20:25:33 42° 279° (W) 1,015 ? -11.8°
Drops below altitude 10° 20:30:10 10° 208° (SSW) 2,210 ? -12.6°
Sets 20:32:34 0° 201° (SSW) 3,137 ? -13.1°
